Wind_Speed
17 14 12 11 10 10 9 8 8 9 10 11 12 13 12 11 11 10 11 2 9 9 10 7 6 9 11 13 12 10 11 11 14 16 18 19 21 13 11 13 17 19 16
17 16 15 12 11 11 11 10 9 8 12 12 13 13 13 12 12 12 10 11 11 11 11 11 10 11 10 10 11 12 12 13 14 15 18 17 17 13 10 11 15 14 16
15 17 16 15 13 12 12 11 9 9 10 13 13 13 12 12 13 12 12 12 11 11 12 12 11 11 11 11 10 11 12 12 12 14 16 16 16 16 13 13 13 16 17
8 9 17 16 14 13 13 13 13 11 11 11 10 10 11 12 13 13 13 13 12 13 12 11 11 11 12 9 12 10 11 10 12 14 16 15 15 16 13 17 17 16 15
7 8 9 11 11 11 11 13 15 14 13 12 12 11 12 11 13 15 15 13 12 12 11 11 13 13 13 11 12 10 7 9 14 17 18 17 16 18 17 18 19 19 21
10 5 7 7 6 7 9 11 12 14 13 14 13 13 13 7 5 16 13 13 12 12 12 12 13 12 14 18 18 19 18 14 14 15 18 19 18 17 18 19 19 20 17
9 11 8 4 6 7 7 9 11 10 10 10 8 10 8 12 12 10 14 15 10 11 13 12 12 14 13 14 14 16 16 16 19 21 21 21 22 21 20 19 20 18 21
11 8 7 6 4 3 7 7 8 8 7 6 5 6 5 2 5 7 10 15 13 12 12 13 13 12 12 12 11 12 14 16 18 17 19 21 20 21 16 19 23 26 26
9 7 7 6 6 4 5 2 5 5 5 7 11 10 7 5 3 2 2 3 2 3 2 3 2 4 7 9 9 12 14 13 14 11 12 16 23 27 26 23 21 22 23
8 9 10 7 7 7 6 5 1 5 7 6 9 8 7 7 4 4 6 3 2 3 4 5 6 7 7 8 7 8 9 8 12 15 15 14 15 17 18 19 18 16 15
10 9 7 7 8 6 7 7 6 7 9 7 7 8 9 10 10 8 5 5 4 4 3 4 6 9 8 8 9 7 9 14 13 11 13 13 14 14 14 13 14 14 16
11 6 7 7 6 7 6 7 8 8 8 8 8 8 7 9 10 9 9 7 6 7 5 6 5 8 8 9 8 11 13 14 10 11 12 12 13 13 13 15 16 14 17
10 8 6 6 7 6 6 7 6 5 6 6 6 6 7 6 7 6 4 3 5 6 5 7 8 10 11 11 8 12 12 11 13 13 15 13 15 17 16 17 16 18 18
8 7 7 5 6 5 5 4 4 5 5 5 5 4 4 2 2 5 6 7 7 6 9 9 7 8 9 10 12 11 9 12 12 13 14 15 17 17 18 19 19 19 20
7 7 7 7 6 6 8 6 4 1 3 2 3 1 2 3 2 6 7 6 6 5 6 7 5 5 8 9 9 10 10 12 12 14 15 17 17 17 17 18 20 22 22
4 5 5 6 8 8 7 6 7 6 4 2 5 5 2 2 4 6 7 8 5 6 3 3 7 8 7 10 11 10 10 12 13 14 14 15 17 19 19 19 18 20 22
3 1 4 4 6 7 9 8 6 4 6 6 3 2 3 3 4 4 5 8 8 2 2 5 6 6 7 8 10 9 11 12 14 14 15 16 18 20 21 20 21 20 20
3 4 4 5 6 6 6 6 6 7 7 4 6 7 9 9 9 8 5 1 2 5 6 7 7 8 9 10 12 13 13 14 14 15 16 16 16 19 21 22 24 25 24
3 6 6 5 4 4 5 6 5 5 4 8 7 4 4 8 10 12 10 7 6 7 7 8 9 10 10 11 12 14 15 15 16 17 17 17 18 19 20 21 23 25 26
8 4 5 5 5 6 5 6 5 5 5 5 5 3 2 3 4 6 7 6 6 7 7 7 8 9 10 11 12 13 14 15 16 16 17 18 19 20 21 22 23 25 26
10 8 10 6 6 5 5 6 5 6 6 5 5 1 6 4 4 4 4 5 6 6 6 6 7 8 8 10 11 13 14 14 15 16 18 19 20 22 22 24 26 27 29
11 9 10 10 8 7 7 6 6 6 5 6 6 4 6 2 3 2 4 4 5 5 6 6 6 7 8 10 12 14 15 16 16 17 19 20 21 22 25 27 28 30 30
13 13 11 12 9 7 7 8 8 7 6 6 5 6 5 3 2 2 2 3 4 4 4 5 6 7 8 9 11 12 14 16 16 17 19 21 22 23 28 30 30 31 31
16 16 15 14 13 11 12 10 8 6 6 7 7 5 4 4 3 3 1 1 3 3 5 5 7 8 9 11 11 12 13 14 16 19 21 22 27 31 33 31 30 30 31
19 19 19 19 17 16 14 13 12 11 10 9 8 7 6 4 4 3 2 3 4 5 5 7 7 8 9 11 12 13 14 19 22 20 21 22 29 32 31 29 30 30 30
19 19 18 20 19 17 17 15 13 12 11 10 9 9 7 6 5 4 4 4 4 6 6 7 8 9 11 12 12 14 20 20 22 25 24 24 25 25 28 30 32 31 31
Wind_Direction
191 186 198 191 195 202 209 216 219 221 209 198 200 201 206 213 218 225 251 243 209 234 263 285 268 284 282 287 307 290 290 294 305 305 324 316 327 307 319 318 324 310 331
189 188 193 194 202 200 217 208 211 212 206 199 202 203 207 213 214 219 229 230 222 232 237 243 255 264 264 270 282 282 291 296 290 301 294 292 298 304 297 296 313 325 322
195 191 192 199 202 215 210 222 210 206 210 215 210 208 209 214 218 221 228 235 239 230 238 245 248 247 251 263 284 297 294 303 310 302 317 302 299 304 297 302 300 314 313
185 229 191 205 210 214 216 215 222 218 211 212 210 213 217 223 225 226 226 234 233 235 237 243 249 253 253 255 260 266 270 277 292 279 283 299 309 298 329 345 326 315 332
220 215 223 213 212 216 228 232 220 224 228 229 226 227 231 226 230 222 222 218 227 240 240 238 244 248 253 254 267 277 307 280 286 302 306 303 306 341 328 311 318 336 317
208 214 221 212 204 207 213 227 231 227 224 224 229 230 228 230 251 208 221 228 231 236 242 246 256 266 253 259 262 265 269 271 273 283 291 294 308 307 305 308 310 307 306
208 206 207 198 218 224 226 227 224 218 224 237 238 247 236 234 254 227 220 233 259 255 259 265 266 263 250 256 263 262 265 271 267 266 263 271 283 288 292 294 293 305 300
197 190 197 188 186 223 228 230 226 204 207 215 216 154 123 259 267 260 255 252 253 271 278 273 267 287 278 263 277 280 277 280 285 281 271 279 284 284 289 290 291 291 288
163 183 189 195 173 159 160 166 187 197 180 162 140 109 85 58 20 321 202 208 136 161 316 281 52 354 310 315 314 294 288 292 292 316 297 296 298 290 287 292 286 288 292
136 161 155 150 154 166 163 185 122 124 128 123 110 99 89 68 71 99 63 46 96 114 83 33 27 355 346 332 338 332 314 336 332 319 323 321 318 307 306 289 284 292 307
111 109 125 138 125 137 144 157 151 137 123 115 112 101 93 83 72 74 81 94 75 21 35 51 29 348 345 344 343 336 318 318 316 314 315 317 316 318 318 321 319 310 304
93 93 103 112 131 132 138 129 131 133 128 133 148 126 94 70 60 67 65 72 77 40 34 16 353 346 350 343 344 321 324 321 306 306 307 309 326 330 328 317 309 305 301
116 108 103 112 120 119 130 130 132 143 162 176 183 154 132 96 40 8 8 64 48 15 336 330 323 323 327 326 313 318 330 307 309 317 317 325 325 322 324 319 324 321 316
142 148 142 139 129 136 146 144 168 186 207 193 193 215 170 142 19 353 358 9 359 3 316 316 306 295 299 292 288 305 301 312 315 309 329 328 318 321 322 321 320 321 317
155 155 159 152 154 117 86 77 90 102 57 304 138 295 278 188 314 4 12 10 7 6 1 339 323 359 336 334 336 342 344 2 338 337 329 321 320 322 320 324 324 319 309
159 167 171 167 175 153 141 98 126 101 82 140 147 126 126 9 3 19 32 49 49 52 33 23 24 30 17 348 342 346 345 350 352 337 327 328 325 323 322 320 315 320 316
291 124 173 215 196 188 175 171 157 110 92 83 97 156 209 348 49 65 71 88 68 83 357 42 36 26 18 1 343 343 343 341 340 336 331 331 327 324 323 321 319 319 315
215 235 227 206 202 200 199 208 194 182 181 133 79 79 64 66 68 92 63 121 136 67 49 42 23 19 7 359 344 342 339 338 337 335 327 325 329 330 326 325 326 328 327
207 217 236 217 205 199 189 196 198 177 174 149 160 124 76 76 72 68 56 60 58 51 36 31 22 12 4 353 347 339 337 336 334 333 331 330 330 326 318 318 315 312 313
199 232 212 218 201 206 194 203 181 174 176 170 143 96 163 173 109 74 59 54 54 46 32 24 15 7 359 350 344 337 335 337 337 335 332 328 328 326 322 318 314 312 307
206 202 203 234 219 202 215 221 194 195 181 165 117 25 144 61 86 87 74 61 50 41 29 20 15 3 353 348 343 336 339 338 337 334 331 328 324 322 320 313 308 304 303
209 200 198 218 200 201 213 215 208 204 184 174 153 118 123 101 113 93 59 46 32 25 16 9 1 353 349 345 340 337 335 335 335 332 329 326 323 321 318 315 311 307 305
206 204 202 214 203 189 199 214 202 198 188 187 184 171 183 163 154 113 49 26 8 354 343 342 336 334 333 332 331 329 328 327 323 320 319 317 315 313 311 306 302 301 299
211 213 207 207 209 206 212 208 196 197 195 191 193 191 197 192 193 176 201 293 336 333 325 320 316 316 315 320 319 314 311 306 306 311 310 303 301 305 307 300 294 291 291
212 210 214 212 204 209 214 208 200 199 201 200 200 204 197 200 202 210 232 280 295 303 304 306 304 301 306 304 306 306 301 298 305 305 304 295 297 301 300 302 299 290 287
220 227 224 224 217 207 219 205 212 203 208 205 204 206 203 209 213 223 240 259 281 295 299 298 296 301 304 305 306 302 314 320 318 317 310 300 300 303 307 306 306 297 290
Height
843 847 850 853 856 859 860 862 862 863 864 866 867 869 871 873 875 876 875 875 878 879 879 879 880 881 880 878 876 875 874 873 870 867 867 867 866 865 865 863 860 855 851
841 845 849 851 853 855 858 858 861 862 864 865 866 867 869 871 872 874 875 874 876 876 877 877 878 878 879 879 878 877 875 875 874 872 870 867 864 862 860 859 857 854 850
837 841 845 849 851 853 854 857 858 861 862 862 865 865 867 869 869 871 872 873 873 874 874 875 875 875 876 876 876 875 874 872 871 869 867 864 861 859 857 854 853 851 847
836 839 842 845 848 849 852 854 857 859 860 862 863 865 866 867 867 868 869 871 871 871 872 872 873 873 873 874 874 874 873 872 870 868 864 860 858 856 854 853 852 849 846
841 840 844 846 847 849 851 852 855 857 858 859 860 862 863 864 865 865 866 867 869 870 870 870 871 871 871 871 871 870 870 870 867 864 861 859 856 856 854 853 849 847 846
841 842 844 846 846 847 849 852 853 855 856 857 858 859 860 860 859 861 863 864 866 868 868 868 868 868 868 868 868 868 868 867 868 867 864 861 858 858 856 854 851 848 845
839 843 844 845 846 847 848 850 852 853 855 856 857 859 859 857 857 859 860 862 864 864 865 865 865 862 863 864 863 863 864 864 863 863 862 860 858 857 856 853 850 848 845
838 843 844 844 844 846 848 849 852 854 854 856 857 857 856 857 857 857 859 860 863 864 864 864 864 863 860 861 862 862 861 861 860 859 858 857 856 854 853 850 848 844 840
839 841 843 843 845 846 846 850 851 852 853 854 855 856 858 857 857 857 858 860 859 860 860 860 861 861 860 860 860 861 859 859 856 854 853 852 850 848 848 847 844 841 834
840 842 843 845 846 848 847 850 851 852 853 855 855 858 857 858 859 858 858 859 860 860 860 860 862 862 862 862 860 860 859 856 853 852 850 849 847 844 844 842 841 839 838
841 843 844 846 846 849 850 852 851 854 856 857 860 859 860 860 860 859 859 860 861 860 859 861 862 862 862 862 861 860 859 857 853 851 850 847 845 843 842 840 839 838 836
844 847 847 848 850 851 853 853 853 855 857 860 862 861 863 862 863 861 862 864 863 863 863 863 863 863 862 862 861 860 858 856 854 850 847 844 842 842 841 840 837 835 833
846 848 850 852 851 852 854 854 855 856 857 859 860 859 862 863 865 865 868 865 863 864 865 862 862 862 862 860 859 858 857 856 852 850 847 844 844 842 840 838 835 833 830
848 850 851 853 852 855 855 855 855 857 858 859 861 863 865 866 869 867 865 863 863 864 864 862 861 862 861 861 858 857 855 855 853 852 848 847 846 842 840 838 835 832 830
850 851 852 852 853 854 855 856 860 860 860 861 862 864 865 865 866 865 863 862 862 862 862 862 861 858 862 861 859 857 855 855 855 853 852 850 846 843 841 839 837 834 830
851 850 850 851 853 855 858 861 861 862 863 864 864 865 865 864 863 862 861 862 863 862 863 864 862 862 863 866 864 860 859 858 856 856 853 851 848 845 842 839 837 834 831
852 852 851 853 853 854 856 860 864 865 865 865 864 865 865 864 863 862 863 863 863 863 864 863 864 864 864 866 868 864 861 860 858 856 856 853 851 847 843 839 836 833 830
854 856 855 855 855 855 856 856 856 860 862 865 866 867 865 865 864 862 863 862 864 865 864 864 866 865 865 866 868 865 863 860 858 857 856 854 851 848 845 842 838 836 832
852 856 857 855 855 855 856 857 856 858 859 861 866 866 866 866 866 866 866 865 865 866 867 866 866 867 867 867 867 867 865 862 859 857 854 852 850 849 847 844 841 840 836
853 855 854 856 857 856 855 855 856 858 859 860 862 865 867 865 865 866 867 869 868 867 869 869 869 869 869 870 868 869 866 862 859 858 856 854 852 851 848 845 841 837 833
852 853 854 855 853 853 855 856 857 857 858 859 864 866 865 863 865 868 870 869 869 870 870 870 869 870 871 870 870 869 865 861 860 859 857 855 853 850 848 844 840 835 829
850 851 851 852 853 855 857 858 858 857 857 859 863 866 866 867 868 870 869 870 870 870 870 870 870 870 870 869 868 867 865 862 859 857 856 855 853 850 846 840 835 829 824
844 845 847 850 852 854 857 857 857 857 858 860 861 863 865 867 868 869 870 870 871 871 871 871 870 870 869 868 867 865 863 862 860 858 856 854 850 847 844 839 835 829 823
840 841 843 846 849 852 853 854 856 856 856 859 861 862 864 865 867 868 869 870 870 870 870 870 869 868 868 866 865 864 862 859 857 856 853 851 847 843 839 834 829 825 820
834 837 839 841 844 848 848 850 851 854 856 857 859 861 862 863 865 866 867 868 869 869 868 868 868 867 865 863 862 861 859 856 853 851 848 845 841 837 832 827 821 817 812
831 833 835 836 838 841 843 846 847 850 853 854 857 859 860 861 862 864 865 866 866 866 865 865 864 862 861 860 859 855 853 851 847 844 841 837 833 829 825 820 814 808 803